Погода в Большом Курейном

Россия / Курганская область     54°54′59″N   66°56′53″E
темп.,
°C
ветер,
м/с
пор.,
м/с
влажн.,
%
обл.,
%
осадки,
мм/ч
давл.,
гПа
погр.,
м
8 марта, пн
пн823:00−8сз61093100 3.9 999425
02:00−11сз61293100 0.0 1002389
05:00−13зсз5109597 0.1 1007240
08:00−15зсз499643 0.0 1010180
11:00−14з589222 0.0 1012272
14:00−12юз5108767 0.0 1013443
17:00−12ююз6118683 0.0 1013520
20:00−11юз7149299 0.1 1012757
9 марта, вт
вт923:00−9юз81690100 0.2 1012719
02:00−8ююз81691100 0.1 1011664
05:00−7юз81591100 0.2 1011615
08:00−8ююз81592100 0.1 1010549
11:00−8юз91490100 0.2 1010646
14:00−6юз91589100 0.1 1010673
17:00−5юз81588100 0.1 1010845
20:00−6зюз6139199 0.0 1012402
10 марта, ср
ср1023:00−9зюз349499 0.0 101385
02:00−11юз3392100 0.0 101228
05:00−11ю2293100 0.0 101121
08:00−10юв2396100 0.0 100849
11:00−7вюв3495100 0.1 1006250
14:00−5вюв3494100 0.5 1004411
17:00−5юв2495100 1.3 1002297
20:00−6юв3497100 0.6 1001105
11 марта, чт
чт1123:00−7ююв3696100 1.3 1000183
02:00−10юз71392100 0.9 999445
05:00−15ююз5139379 0.9 1000371
08:00−15юз6129399 0.1 1002524
11:00−15юз689299 0.3 1004585
14:00−14юз5789100 0.1 1006675
17:00−13сз2491100 0.3 1008344
20:00−16сз51094100 0.1 1012351
12 марта, пт
пт1223:00−18сз5994100 0.3 1016381
02:00−25зсз349526 0.0 101825
05:00−25зюз449746 0.0 102155
08:00−24юз499718 0.0 1022149
11:00−19зюз599330 0.0 1023293
14:00−16зюз599161 0.0 1024353
17:00−16юз489376 0.0 1025362
20:00−19юз479894 0.0 1026101